Torna al catalogo

STARLINK-35094

AttivoComunicazioniSSO
NORAD 65395·PAYLOAD·🇺🇸 United States

Lanciato Aug 30, 2025 da Vandenberg Space Force Base

Loading…

Prossimi Passaggi (prossime 24 ore)

TLE

AggiornatoSource: CelesTrak SupGP

Epoca: Sep 14, 2026, 22:48 UTC

1 65395C 25191S   26257.95048611  .00062165  00000+0  19303-2 0  2576
2 65395  97.2844 124.1244 0002069  94.4628 244.7049 15.33397522    13

Traccia STARLINK-35094 in tempo reale con AllMySat

Download on the App Store